Location: ???????????
(54.5822°N, 39.1075°E)
Time: 01:55:30
(UTC+00:00)

Cosmos 1862 Rocket - Pass Details

Date: 19 May 2025
Orbit: 598 x 627 km, 82.5° (Epoch: 14 June)

Event Time Altitude Azimuth Distance (km) Brightness Sun altitude
Exits shadow 23:41:14 - 182° (S) 2,106 5.8 -9.6°
Reaches altitude 10° 23:41:31 10° 182° (S) 1,994 5.7 -9.5°
Maximum altitude 23:45:55 72° 98° (E) 663 3.8 -9.2°
Drops below altitude 10° 23:50:23 10° 15° (NNE) 2,018 7.5 -8.8°
Sets 23:52:38 0° 13° (NNE) 2,931 8.5 -8.6°
